Regional Weather Roundup
Issued by NWS

Home | Current Version | Previous Version | Graphics & Text | Print | Product List | Glossary On
Versions: 1 2 3 4 5 6 7 8 9 10 11 12 13 14 15 16 17 18 19 20 21 22 23 24 25 26 27 28 29 30 31 32 33 34 35 36 37 38 39 40 41 42 43 44 45 46 47 48 49 50
000
ASUS45 KPSR 011710
RWRAZ

ARIZONA REGIONAL HOURLY WEATHER ROUNDUP
NATIONAL WEATHER SERVICE PHOENIX AZ
1000 AM MST SUN FEB 01 2015

NOTE: FAIR INDICATES FEW OR NO CLOUDS BELOW 12,000 FEET WITH NO
SIGNIFICANT WEATHER AND/OR OBSTRUCTIONS TO VISIBILITY.

AZZ001>003-036-011800-
NORTHWEST ARIZONA

CITY           SKY/WX    TMP DP  RH WIND       PRES   REMARKS
BULLHEAD CITY  SUNNY     59  32  36 N18       30.15R
KINGMAN        SUNNY     50  37  61 VRB3      30.19R
$$

AZZ004>008-015-016-018-011800-
NORTH CENTRAL ARIZONA

CITY           SKY/WX    TMP DP  RH WIND       PRES   REMARKS
GRAND CANYON   SUNNY     39  31  72 CALM      30.21R
PRESCOTT       MOSUNNY   43  35  73 N5        30.20R
FLAGSTAFF      SUNNY     41  22  46 NE14      30.19R
PAYSON         SUNNY     46  32  57 NE12G17   30.18R
$$

AZZ009>014-017-011800-
NORTHEAST ARIZONA

CITY           SKY/WX    TMP DP  RH WIND       PRES   REMARKS
WINSLOW        FOG       36  36 100 W5        30.23R VSB 1/4 WCI  32
SAINT JOHNS    CLOUDY    38  34  85 NW6       30.20R WCI  33
WINDOW ROCK    SUNNY     36  24  62 N9        30.17R WCI  29
SHOW LOW       CLOUDY    32  30  93 N9        30.22R WCI  24
$$

AZZ023-011800-
GREATER PHOENIX AREA

CITY           SKY/WX    TMP DP  RH WIND       PRES   REMARKS
PHOENIX        FOG       52  52 100 CALM      30.10R VSB 1/4
BUCKEYE          N/A     48  48 100 SE5       30.13R VSB<1/4
GLENDALE       FOG       52  52 100 CALM      30.13R VSB 1/8
LUKE AFB       FOG       50  49  99 CALM      30.11R VSB<1/4
DEER VALLEY    SUNNY     54  52  93 CALM      30.10R
SCOTTSDALE     SUNNY     53  50  89 CALM      30.12R
MESA-FALCON    MOSUNNY   48  48 100 NW6       30.11R
MESA-GATEWAY   FOG       48  48 100 CALM      30.13R VSB 1/8
CHANDLER       FOG       50  50 100 CALM      30.13R VSB 1/4
$$

AZZ027-028-011800-
SOUTHWEST MARICOPA COUNTY AND PINAL COUNTY

CITY           SKY/WX    TMP DP  RH WIND       PRES   REMARKS
CASA GRANDE    CLOUDY    48  46  93 CALM      30.12R
GILA BEND      DRZL/FOG  51  52 100 NE8       30.12R VSB 1/8
$$

AZZ503-504-507>509-011800-
SOUTHEAST ARIZONA

CITY           SKY/WX    TMP DP  RH WIND       PRES   REMARKS
TUCSON         FOG       49  48  97 CALM      30.13R VSB 1/2
DAVIS-MONTHAN  CLOUDY    48  48 100 SW2       30.12R FOG
RYAN FIELD       N/A     48  48 100 NW5       30.14R FOG
NOGALES        SUNNY     49  43  80 CALM      30.09R
SIERRA VISTA   SUNNY     50  41  71 CALM      30.11R
DOUGLAS        MOSUNNY   46  42  86 CALM      30.12R
SAFFORD        CLOUDY    48  47  96 CALM      30.11R
$$

AZZ020-021-025-026-031-011800-
SOUTHWEST ARIZONA

CITY           SKY/WX    TMP DP  RH WIND       PRES   REMARKS
YUMA           SUNNY     62  52  69 NE6       30.10R
$$

CAZ031-033-041-043-047-048-061-011800-
SOUTHERN CALIFORNIA

CITY           SKY/WX    TMP DP  RH WIND       PRES   REMARKS
DOWNTOWN L.A.  SUNNY     60  43  53 E6        30.10R
L.A. AIRPORT   MOSUNNY   59  52  77 E6        30.11R
SAN DIEGO      MOSUNNY   60  47  61 CALM      30.12R
BURBANK        SUNNY     59  39  47 CALM      30.10R
ONTARIO        MOSUNNY   59  46  62 CALM      30.11R
RIVERSIDE      SUNNY     58  44  60 CALM      30.11S
PALM SPRINGS   SUNNY     66  40  38 CALM      30.12R
EL CENTRO NAS  SUNNY     61  47  59 W6        30.10R
IMPERIAL       SUNNY     62  45  53 CALM      30.10R
BLYTHE         SUNNY     57  47  69 CALM      30.12R
NEEDLES        SUNNY     61  35  37 N9        30.15R
$$

NVZ020-UTZ003-011800-
SOUTHERN NEVADA-UTAH

CITY           SKY/WX    TMP DP  RH WIND       PRES   REMARKS
LAS VEGAS      MOSUNNY   52  38  58 S7        30.17R
SALT LAKE CITY MOSUNNY   36  29  75 S7        30.25R WCI  30
$$

NMZ009-TXZ055-011800-
NEW MEXICO-WEST TEXAS

CITY           SKY/WX    TMP DP  RH WIND       PRES   REMARKS
ALBUQUERQUE    MOSUNNY   41  31  67 N9        30.14R
EL PASO        PTSUNNY   48  45  89 N7        30.09R FOG
$$


........................KEY........................
SKY/WX - SKY CONDITION/WEATHER
TMP    - TEMPERATURE IN FAHRENHEIT
DP     - DEW POINT IN FAHRENHEIT
RH     - RELATIVE HUMIDITY IN PERCENT
WIND   - DIRECTION AND SPEED IN MILES PER HOUR (MPH)
VRB    - VARIABLE WIND DIRECTION
PRES   - MEAN SEA LEVEL PRESSURE IN INCHES OF MERCURY
         F - FALLING PRESSURE   R - RISING PRESSURE
         S - STEADY PRESSURE
VSB    - VISIBILITY IN MILES
HX     - HEAT INDEX IN FAHRENHEIT
WCI    - WIND CHILL INDEX IN FAHRENHEIT
TC     - TEMPERATURE IN CELSIUS WHICH IS ALSO KNOWN AS
         TEMPERATURE IN CENTIGRADE
AFB    - AIR FORCE BASE
         LUKE AFB IS LUKE AIR FORCE BASE
         DAVIS-MONTHAN IS DAVIS-MONTHAN AIR FORCE BASE
NAS    - NAVAL AIR STATION
         EL CENTRO NAS IS EL CENTRO NAVAL AIR STATION
N/A    - NOT AVAILABLE



USA.gov is the U.S. government's official web portal to all federal, state and local government web resources and services.